Home   Weather   Bad Kissingen   Past weeks

Flag for Germany Past Weather in Bad Kissingen, Bavaria, Germany — Yesterday and Last 2 Weeks

Now
76 °F

Sunny.


Feels Like: 78 °F
Forecast: 47 / 77 °F
Wind: 9 mph from Northeast

Location: Illesheim

Current Time: Aug 30, 2016 at 5:02:32 PM

Latest Report: Aug 30, 2016 at 3:58 PM


Visibility: N/A

Pressure: 30.23 "Hg

Humidity: 42%

Dew Point: 51 °F

Location of Bad KissingenLocation

Past Weather in Bad Kissingen — Graph

°F

Bad Kissingen Temperature Yesterday

Maximum temperature yesterday: 81 °F (at 3:58 PM)
Minimum temperature yesterday: 58 °F (at 11:58 PM)
Average temperature yesterday: 71 °F

High & Low Weather Summary for the Past Weeks

 TemperatureHumidityPressure
High92 °F (Aug 28, 4:58 PM)100% (Aug 16, 6:58 AM)30.41 "Hg (Aug 16, 6:58 AM)
Low43 °F (Aug 18, 5:58 AM)23% (Aug 27, 4:58 PM)29.81 "Hg (Aug 18, 4:58 PM)
Average68 °F64%30.08 "Hg
* Reported Aug 15 3:58 PM — Aug 30 3:58 PM, Bad Kissingen, Weather by CustomWeather, © 2016

Note: Actual official high and low records may vary slightly from our data, if they occured in-between our weather recording intervals... More about our weather records

Advertising

Bad Kissingen Weather History for the Previous 24 Hours

Scroll right to see more
 ConditionsComfort  
Time TempWeatherWind HumidityBarometerVisibility
3:58 PM
Tue, Aug 30
76 °FSunny.9 mph42%30.23 "HgN/A
2:58 PM75 °FSunny.6 mph44%30.25 "HgN/A
1:58 PM74 °FSunny.8 mph44%30.26 "HgN/A
12:58 PM73 °FSunny.12 mph48%30.26 "HgN/A
11:58 AM72 °FSunny.8 mph53%30.27 "HgN/A
10:58 AM69 °FSunny.8 mph60%30.28 "HgN/A
9:58 AM65 °FSunny.9 mph69%30.28 "HgN/A
8:58 AM60 °FSunny.5 mph80%30.27 "HgN/A
7:58 AM56 °FSunny.No wind91%30.26 "HgN/A
6:58 AM50 °FClear.3 mph94%30.26 "HgN/A
5:58 AM50 °FClear.No wind95%30.23 "HgN/A
4:58 AM51 °FClear.3 mph93%30.23 "HgN/A
3:58 AM54 °FClear.2 mph88%30.21 "HgN/A
2:58 AM55 °FClear.3 mph88%30.21 "HgN/A
1:58 AM57 °FPassing clouds.2 mph84%30.21 "HgN/A
12:58 AM56 °FPassing clouds.2 mph83%30.21 "HgN/A
11:58 PM
Mon, Aug 29
58 °FPassing clouds.2 mph80%30.20 "HgN/A
10:58 PM64 °FClear.3 mph69%30.18 "HgN/A
9:58 PM62 °FClear.5 mph70%30.16 "HgN/A
8:58 PM70 °FSunny.3 mph56%30.13 "HgN/A
7:58 PM73 °FPassing clouds.5 mph50%30.10 "HgN/A
6:58 PM76 °FPartly sunny.10 mph44%30.08 "HgN/A
5:58 PM79 °FPassing clouds.8 mph39%30.06 "HgN/A
Weather by CustomWeather, © 2016

See weather overviewHow to use our weather pages